Content
SEND FEEDBACK

Daily
Averages
Monthly
Summary
United States of America

ACHANG BAY, GUAM


Home > North America > United States > Guam
Elevation: 10 meters     Latitude: 13 16N     Longitude: 144 45E

WEATHER
 
SELECT A DAY
Number of Records: 342,273;   Date Range: 1/1/95 - 8/30/14
 
SHARE

PRINT THIS DATA

[ ← Previous Day ]
WEATHER ALMANAC - 1 FEBRUARY, 2013
[ Next Day → ]
[ °F ]   °C
Weather ElementAverageHighLow
Temperature25.3 °C27.6 °C (11:55 am)24 °C (2:02 am)
Dewpoint19.3 °C21 °C (12:49 am)17.4 °C (11:55 pm)
Humidity69.3 %83 % (2:02 am)59 % (11:55 am)
Barometer1015.6 hPa1017.9 hPa (9:55 am)1014.2 hPa (3:45 pm)
Wind Speed37 km/h46.3 km/h (3:55 am)
Wind Gust57.5 km/h (3:31 am)
Weather ElementAverage
Visibility16.1 km
Wind DirectionNNE (38.8 °)

Weather ElementTotal
Precipitation---
Cooling Degree Days7.5 (Base 18.3)
Growing Degree Days15.8 (Base 10)
Averaged from 58 records on 1 February, 2013
WEATHER CONDITIONS BREAKOUT
WIND DIRECTION BREAKOUT
WEATHER BY HOUR - 1 FEBRUARY, 2013
[ °F ]   °C
Local TimeTemperatureDewpointHumidityBarometerVisibilityWind DirectionWind SpeedGust SpeedPrecipitationEventsConditions
12:49 AM25 °C21 °C78 %1016.3 hPa16.1 kmNNE (30°)42.6 km/h51.8 km/hOvercast
12:53 AM25 °C21 °C78 %1016.3 hPa16.1 kmNNE (30°)35.2 km/h51.8 km/hOvercast
12:55 AM24.5 °C21 °C81 %1016.3 hPa16.1 kmNNE (30°)40.7 km/h51.8 km/hOvercast
1:55 AM24.1 °C20.8 °C82 %1015.6 hPa16.1 kmNNE (30°)40.7 km/h51.8 km/hMostly Cloudy
2:02 AM24 °C21 °C83 %1015.6 hPa16.1 kmNNE (30°)40.7 km/h53.8 km/hMostly Cloudy
2:55 AM24.1 °C20.5 °C80 %1015.2 hPa16.1 kmNNE (20°)38.9 km/h53.8 km/hMostly Cloudy
2:59 AM24 °C20 °C78 %1015.2 hPa16.1 kmNNE (20°)44.4 km/h53.8 km/hScattered Clouds
3:31 AM24 °C20 °C78 %1014.9 hPa16.1 kmNNE (30°)40.7 km/h57.5 km/hMostly Cloudy
3:50 AM24 °C20 °C78 %1014.9 hPa16.1 kmNNE (30°)40.7 km/h57.5 km/hScattered Clouds
3:55 AM24.2 °C20.2 °C78 %1014.9 hPa16.1 kmNNE (20°)46.3 km/h57.5 km/hScattered Clouds
4:19 AM24 °C20 °C78 %1014.9 hPa16.1 kmNNE (30°)37 km/h53.8 km/hMostly Cloudy
4:44 AM24 °C20 °C78 %1015.2 hPa16.1 kmNNE (20°)40.7 km/h55.5 km/hMostly Cloudy
4:45 AM24 °C20 °C78 %1015.2 hPa16.1 kmNNE (20°)40.7 km/h55.5 km/hMostly Cloudy
4:55 AM24.3 °C19.9 °C76 %1015.2 hPa16.1 kmNNE (30°)31.5 km/h50.1 km/hOvercast
5:26 AM24 °C19 °C73 %1015.6 hPa16.1 kmNE (40°)40.7 km/h48.1 km/hMostly Cloudy
5:27 AM24 °C19 °C73 %1015.6 hPa16.1 kmNE (40°)40.7 km/h48.1 km/hMostly Cloudy
5:51 AM24 °C18 °C69 %1015.6 hPa16.1 kmNE (40°)37 km/h48.1 km/hOvercast
5:54 AM25 °C18 °C65 %1015.9 hPa16.1 kmNE (40°)37 km/h48.1 km/hOvercast
5:55 AM24.5 °C18.5 °C69 %1015.6 hPa16.1 kmNE (40°)35.2 km/h48.1 km/hMostly Cloudy
6:13 AM24 °C19 °C73 %1015.9 hPa16.1 kmNE (40°)38.9 km/h50.1 km/hOvercast
6:55 AM24.5 °C19.2 °C72 %1016.6 hPa16.1 kmNNE (30°)29.6 km/h48.1 km/hOvercast
6:57 AM25 °C19 °C69 %1016.6 hPa16.1 kmNNE (30°)31.5 km/h48.1 km/hOvercast
7:15 AM25 °C19 °C69 %1016.6 hPa16.1 kmNE (40°)31.5 km/h48.1 km/hOvercast
7:55 AM24.8 °C18.9 °C70 %1017.3 hPa16.1 kmNNE (30°)37 km/hMostly Cloudy
8:18 AM25 °C19 °C69 %1017.3 hPa16.1 kmNE (40°)33.3 km/h44.4 km/hMostly Cloudy
8:22 AM25 °C19 °C69 %1017.6 hPa16.1 kmNE (40°)33.3 km/h48.1 km/hMostly Cloudy
8:55 AM25.8 °C18.7 °C65 %1017.6 hPa16.1 kmNNE (30°)35.2 km/hMostly Cloudy
9:55 AM26.7 °C19 °C62 %1017.9 hPa16.1 kmNNE (30°)33.3 km/h48.1 km/hClear
10:55 AM27.2 °C19 °C61 %1017.3 hPa16.1 kmNE (40°)35.2 km/h50.1 km/hClear
11:55 AM27.6 °C19 °C59 %1016.6 hPa16.1 kmNE (40°)33.3 km/h51.8 km/hPartly Cloudy
12:51 PM27 °C20 °C65 %1015.6 hPa16.1 kmNE (40°)42.6 km/h50.1 km/hMostly Cloudy
12:53 PM27 °C20 °C65 %1015.6 hPa16.1 kmNNE (30°)37 km/h50.1 km/hMostly Cloudy
12:55 PM26.7 °C19.6 °C65 %1015.6 hPa16.1 kmNE (40°)37 km/h50.1 km/hMostly Cloudy
1:20 PM27 °C19 °C61 %1015.2 hPa16.1 kmNE (40°)38.9 km/h48.1 km/hMostly Cloudy
1:23 PM27 °C19 °C61 %1015.2 hPa16.1 kmNE (40°)37 km/hMostly Cloudy
1:55 PM27.4 °C18.8 °C59 %1014.9 hPa16.1 kmNE (40°)37 km/h48.1 km/hScattered Clouds
2:55 PM27.3 °C18.9 °C60 %1014.6 hPa16.1 kmNE (40°)40.7 km/hScattered Clouds
3:45 PM27 °C19 °C61 %1014.2 hPa16.1 kmNE (50°)38.9 km/h48.1 km/hMostly Cloudy
3:55 PM26.7 °C19.2 °C63 %1014.2 hPa16.1 kmNE (40°)33.3 km/hMostly Cloudy
3:59 PM27 °C19 °C61 %1014.2 hPa16.1 kmNE (40°)37 km/hMostly Cloudy
4:07 PM26 °C19 °C65 %1014.2 hPa16.1 kmNE (40°)38.9 km/hMostly Cloudy
4:17 PM26 °C19 °C65 %1014.2 hPa16.1 kmNE (40°)37 km/h48.1 km/hMostly Cloudy
4:41 PM26 °C19 °C65 %1014.2 hPa16.1 kmNE (50°)33.3 km/h44.4 km/hMostly Cloudy
4:42 PM26 °C19 °C65 %1014.2 hPa16.1 kmNE (40°)33.3 km/h44.4 km/hMostly Cloudy
4:55 PM26 °C19.2 °C66 %1014.2 hPa16.1 kmNE (40°)38.9 km/hMostly Cloudy
5:55 PM25.4 °C19.2 °C68 %1014.2 hPa16.1 kmNE (40°)40.7 km/hScattered Clouds
6:48 PM25 °C19 °C69 %1014.9 hPa16.1 kmNE (50°)29.6 km/hMostly Cloudy
6:55 PM25.2 °C18.8 °C67 %1014.9 hPa16.1 kmNE (50°)35.2 km/hOvercast
6:59 PM25 °C19 °C69 %1014.9 hPa16.1 kmNE (50°)31.5 km/hMostly Cloudy
7:09 PM25 °C19 °C69 %1014.9 hPa16.1 kmENE (60°)35.2 km/h46.3 km/hMostly Cloudy
7:14 PM25 °C19 °C69 %1014.9 hPa16.1 kmNE (50°)35.2 km/h46.3 km/hMostly Cloudy
7:15 PM25 °C19 °C69 %1014.9 hPa16.1 kmNE (50°)35.2 km/h42.6 km/hMostly Cloudy
7:16 PM25 °C19 °C69 %1014.9 hPa16.1 kmNE (50°)37 km/h42.6 km/hMostly Cloudy
7:55 PM24.8 °C18.2 °C67 %1015.2 hPa16.1 kmNE (50°)37 km/hPartly Cloudy
8:55 PM24.7 °C18.5 °C68 %1015.6 hPa16.1 kmENE (60°)35.2 km/h46.3 km/hPartly Cloudy
9:55 PM24.7 °C18.3 °C67 %1015.9 hPa16.1 kmENE (60°)37 km/h48.1 km/hScattered Clouds
10:55 PM24.4 °C17.7 °C66 %1016.3 hPa16.1 kmENE (60°)42.6 km/h48.1 km/hPartly Cloudy
11:55 PM24.6 °C17.4 °C64 %1015.9 hPa16.1 kmNE (50°)33.3 km/hMostly Cloudy
Hourly data recorded from PGUA, located 0 kilometers away from Achang Bay, Guam







STORIES FROM OUR PARTNERS